Volver al catálogo

STARLINK-5624

ActivoComunicacionesVLEO
NORAD 55416·PAYLOAD·🇺🇸 United States

Lanzado Jan 31, 2023 desde Vandenberg Space Force Base

Loading…

Próximos Pases (próximas 24 horas)

TLE

ActualizadoSource: CelesTrak SupGP

Época: Sep 14, 2026, 22:22 UTC

1 55416C 23014AB  26257.93243056 -.00005506  00000+0 -46149-3 0  2576
2 55416  70.0009 327.2703 0003502 271.4594 314.7219 14.98327652    10

Sigue STARLINK-5624 en tiempo real con AllMySat

Download on the App Store